RH
12 12 31 44 52 60 63 69 63 61 65 73 69 71 72 69 71 72 76 75 75 77 78 84 82 78 81 79 78 85 86 81
12 12 13 39 47 60 62 67 70 63 63 80 77 73 75 72 70 72 74 73 73 77 75 79 78 79 74 76 75 83 88 90
11 11 12 18 43 55 61 62 68 70 69 60 72 68 69 71 72 74 73 73 74 70 74 76 71 73 86 84 77 94 78 94
14 12 11 14 36 50 59 60 65 68 72 73 71 86 82 85 78 76 80 76 73 73 72 76 74 78 76 80 80 76 78 96
12 12 16 19 36 41 55 58 63 65 64 70 70 76 77 68 68 72 79 84 79 74 72 74 80 77 77 76 76 76 77 85
14 16 16 17 37 50 54 58 64 65 66 68 66 70 67 66 67 70 76 83 82 80 77 77 78 81 77 78 79 82 77 73
13 20 35 49 62 60 55 58 64 71 74 77 73 71 70 69 72 80 75 81 84 84 81 80 78 78 80 82 82 84 78 77
35 48 51 56 63 68 78 80 80 82 82 82 80 76 77 79 75 74 76 75 79 83 84 84 83 80 78 81 87 82 84 82
46 48 52 53 59 64 62 74 74 80 91 91 87 82 81 78 80 71 72 73 72 70 83 80 82 82 84 84 87 88 82 84
41 43 43 52 59 65 70 69 71 72 73 84 90 91 92 90 86 86 81 73 78 81 81 87 85 85 86 88 90 88 88 86
40 39 38 38 44 58 67 63 62 69 70 78 85 84 82 80 90 83 84 86 92 92 91 89 85 85 88 91 90 90 92 91
40 41 37 36 36 41 56 60 60 64 67 72 80 87 93 94 93 94 94 92 93 92 89 86 86 87 89 91 91 90 93 92
35 34 35 34 38 35 49 55 52 58 62 71 75 78 91 94 95 96 97 97 94 93 94 94 91 89 90 92 92 91 94 94
32 35 33 32 35 39 38 46 46 54 52 60 69 75 85 94 94 93 95 97 97 97 96 96 95 92 93 94 92 92 93 93
32 29 30 30 31 35 40 43 45 51 48 48 62 67 80 90 91 91 91 94 97 96 97 97 96 97 96 96 95 95 95 94
35 35 36 34 33 32 36 44 49 51 48 51 61 66 70 80 86 88 89 90 92 96 96 96 97 99 98 98 98 98 99 99
34 35 32 33 36 37 39 42 46 48 48 53 55 59 65 72 84 89 90 90 91 94 96 98 98 98 100 100 100 99 99 99
34 35 35 36 36 36 37 39 41 42 45 49 52 57 63 73 84 91 90 92 95 94 96 98 98 98 100 100 100 99 99 99
38 40 40 38 38 36 41 38 39 41 42 43 47 52 58 98 95 94 98 100 100 100 99 99 99 98 100 100 100 99 99 99
Wind_Speed
10 11 11 18 20 21 22 18 20 20 14 11 8 8 9 9 10 10 13 11 13 11 8 7 8 7 7 6 6 6 4 6
9 9 10 14 20 20 21 20 20 15 13 13 11 13 10 10 10 13 14 13 14 13 10 10 10 10 11 10 7 7 7 5
9 10 9 11 20 22 22 23 20 18 14 14 10 13 11 10 9 11 14 15 14 13 13 11 13 9 8 11 11 4 7 6
8 9 13 9 14 22 22 24 23 22 21 10 7 4 3 7 10 11 12 15 15 15 15 12 11 11 10 10 10 13 9 5
13 10 8 7 11 19 23 24 24 22 22 18 20 15 15 13 12 9 9 14 16 16 16 14 13 10 13 12 10 10 8 9
11 11 10 9 7 14 20 23 24 24 23 21 20 18 14 10 10 14 13 12 16 16 16 14 14 11 13 13 11 12 11 9
10 7 5 3 4 8 18 21 19 19 20 19 21 21 16 11 11 9 10 8 9 14 16 16 15 14 14 12 12 13 13 12
8 9 7 7 8 7 9 5 5 4 10 12 17 17 14 13 12 11 12 11 10 15 18 17 14 16 15 12 11 13 12 13
15 13 8 10 11 11 10 10 6 6 5 7 7 7 7 8 10 10 10 11 12 14 13 15 16 15 14 12 10 10 13 13
13 13 11 11 12 13 11 13 11 9 4 4 4 4 5 5 7 8 8 12 9 11 13 15 14 14 14 14 11 13 13 13
11 11 11 10 9 8 11 9 11 7 9 7 7 3 6 7 8 11 11 9 8 9 11 13 14 14 15 15 14 13 13 12
9 9 8 7 6 8 8 8 8 9 7 7 8 7 7 7 5 4 4 4 7 10 13 14 14 15 15 16 17 16 16 16
7 6 6 7 7 7 6 7 7 6 6 6 7 6 6 6 7 8 8 8 5 6 6 10 11 13 13 15 15 14 15 17
10 6 5 6 5 6 6 7 7 6 7 7 6 6 7 7 6 6 5 7 8 7 5 8 10 11 12 13 15 15 16 15
12 16 10 7 5 5 5 6 5 5 6 4 4 6 6 4 4 6 6 5 7 9 9 8 7 7 8 11 12 13 14 13
14 12 11 13 14 10 7 5 5 4 7 10 9 7 6 6 6 4 4 5 5 5 7 8 8 6 6 8 8 9 9 8
4 7 13 12 10 10 9 8 8 8 8 7 7 7 7 7 7 7 7 6 6 6 5 5 7 6 10 12 9 7 7 8
9 10 8 7 6 6 8 7 7 8 6 6 6 6 7 7 7 5 7 7 6 7 7 6 7 7 10 11 11 5 6 7
10 8 9 8 6 8 6 6 5 5 6 6 6 6 6 5 5 7 5 4 5 5 7 7 8 7 11 9 7 7 5 6
Wind_Direction
234 207 203 189 188 185 184 184 187 186 178 173 181 186 193 190 190 195 192 201 195 195 194 183 186 189 196 196 197 200 190 203
233 222 189 202 191 186 187 181 190 182 181 182 187 196 190 197 196 194 195 197 202 197 202 196 192 197 202 200 200 197 217 179
232 251 235 177 193 192 189 190 181 187 187 193 195 191 190 190 195 198 199 199 198 203 203 204 205 203 192 197 198 189 209 179
249 251 241 230 190 191 193 190 185 185 188 187 193 141 158 170 197 200 198 200 202 201 208 205 205 205 207 201 199 202 203 207
242 236 225 202 197 197 193 191 187 189 184 180 190 189 188 205 199 193 185 191 199 205 206 208 209 207 211 210 201 206 195 201
222 211 208 217 176 196 190 199 192 190 184 186 186 193 204 206 198 195 190 189 196 203 207 206 212 214 219 214 208 208 210 209
222 167 94 35 140 178 194 192 205 188 186 187 188 191 199 200 199 195 203 192 195 201 205 210 211 213 218 214 209 203 210 215
73 75 69 50 17 114 100 111 116 140 181 193 189 188 191 194 198 202 197 204 203 207 202 205 210 215 218 216 209 216 211 213
70 60 52 51 40 34 82 113 128 137 138 177 180 197 203 200 192 196 210 209 210 216 214 210 211 211 215 214 212 213 216 219
59 62 48 43 50 54 55 74 71 66 77 201 247 255 257 237 234 235 212 212 213 214 212 212 208 212 213 210 212 218 217 219
43 50 56 47 42 35 65 63 77 69 64 59 52 317 285 252 223 229 224 221 205 196 202 212 215 212 213 214 217 221 219 222
35 21 31 48 65 60 61 60 59 61 59 60 62 47 39 34 44 357 285 232 224 205 206 212 213 212 209 212 220 219 216 221
21 51 48 31 17 36 57 67 73 78 87 71 57 54 55 47 24 6 5 357 316 251 227 208 213 217 214 216 221 222 218 222
2 11 26 18 38 50 46 37 36 40 36 36 48 49 37 29 26 17 358 355 338 338 281 230 219 219 216 218 221 221 224 224
10 7 349 9 15 50 56 66 45 39 43 47 47 29 17 22 20 9 4 345 326 342 337 315 258 244 221 220 218 217 221 227
357 8 9 21 15 3 14 51 68 69 42 23 11 358 337 346 349 1 1 1 349 330 328 333 327 254 241 230 225 215 208 204
348 1 360 12 13 9 0 1 9 23 26 18 1 354 346 341 330 329 341 344 350 350 342 329 337 327 316 273 231 204 207 195
339 343 356 354 344 347 340 334 337 349 354 352 351 345 348 340 330 319 318 327 336 337 334 340 332 320 332 315 284 241 214 213
332 340 343 332 325 321 290 275 287 299 306 315 314 317 316 315 323 296 288 297 316 336 333 331 325 314 321 315 306 281 258 214